Location: Gençay
(46.9321°N, 0.3077°E)
Time: 13:36:51
(UTC+00:00)

Daily predictions for brighter satellites

Satellite Brightness Start Highest point End
(mag) Time Altitude Azimuth Time Altitude Azimuth Time Altitude Azimuth
Cosmos 1536 Rocket 3.7 20:27:09 10° S 20:31:22 53° E 20:35:38 10° NNE
Cosmos 1703 3.8 20:28:56 10° SSE 20:32:32 39° E 20:36:09 10° NNE
Cosmos 1741 Rocket 4.1 20:28:33 10° NNW 20:33:54 77° ENE 20:39:14 10° SSE
CARTOSAT-1 3.9 20:30:16 10° SSE 20:34:27 53° ENE 20:38:40 10° N
USA 245 3.8 20:32:44 10° SE 20:36:18 37° ENE 20:39:13 10° N
Ariane Rocket 3.0 20:33:23 10° SSE 20:38:29 82° ENE 20:43:36 10° NNW
PSLV R/B 4.1 20:37:53 10° NNE 20:42:04 82° WNW 20:46:14 10° SSW
CZ-4B R/B 0.9 20:43:18 10° NNE 20:46:11 86° E 20:49:05 10° SSW
ARIANE 5 R/B 4.2 20:44:46 10° ESE 20:48:07 21° ENE 20:51:28 10° NNE
Terra 2.9 20:44:20 10° SE 20:48:28 30° ENE 20:52:37 10° N
ATLAS 2AS CENTAUR R/B 3.9 20:42:38 10° NW 20:48:50 35° WSW 20:54:42 10° S
SPOT 3 Rocket 3.7 20:44:57 10° SSE 20:50:07 69° ENE 20:55:19 10° N
SPOT 5 3.2 20:47:03 10° SE 20:51:07 41° ENE 20:55:12 10° N
USA 276 3.1 20:49:29 10° WNW 20:52:25 44° N 20:55:21 10° ENE
RESURS DK-1 2.9 20:48:24 10° NW 20:52:28 56° WSW 20:56:30 10° SSE
FALCON 9 DEB 4.3 20:50:51 10° NW 20:53:56 36° NNE 20:56:59 10° E
Cosmos 1271 Rocket 4.2 20:51:12 10° NNW 20:54:50 35° W 20:58:25 10° SSW
Cosmos 1455 3.5 20:51:34 10° NNW 20:55:08 38° W 20:58:42 10° SSW
Cosmos 1726 Rocket 4.4 20:53:45 10° N 20:57:44 34° ENE 21:01:15 12° SE
Cosmos 1850 Rocket 4.4 20:54:23 10° NNW 20:59:31 64° WSW 21:04:36 10° S
Cosmos 1331 Rocket 4.0 20:57:00 10° SSW 21:02:17 76° ESE 21:07:36 10° NNE
IRAS Rocket 4.2 20:57:10 10° NNE 21:02:47 79° ESE 21:08:19 10° SSW
Cosmos 2082 Rocket 2.7 20:58:11 10° S 21:03:25 39° ESE 21:08:39 10° NE
Cosmos 2074 Rocket 4.1 20:57:56 10° N 21:04:14 86° W 21:10:28 10° S
Cosmos 2360 4.3 21:00:50 10° NNW 21:06:36 83° WSW 21:11:58 12° SSE
Helios 1A Rocket 3.2 21:04:55 13° SSE 21:08:26 55° ENE 21:12:28 10° N
Cosmos 1328 4.2 21:05:03 10° SSE 21:08:49 45° E 21:12:37 10° NNE
Spot 2 Rocket 3.6 21:04:02 11° SSE 21:08:50 67° ENE 21:13:56 10° N
Cosmos 2084 Rocket 3.2 21:06:43 10° NW 21:10:37 83° SW 21:13:53 15° SE
Lacrosse 5 4.3 21:11:54 10° W 21:13:49 12° WSW 21:15:45 10° SW
Nadezhda 1 Rocket 3.9 21:08:06 10° S 21:14:06 70° E 21:20:10 10° NNE
GEOS 3 Rocket 4.4 21:09:17 10° SSE 21:14:08 44° WSW 21:19:01 10° NW
Cosmos 1295 Rocket 4.5 21:11:53 10° N 21:18:09 82° E 21:23:58 12° S
X-37B 1.8 21:22:19 10° WSW 21:24:36 22° SSW 21:25:27 19° S
ERS-1 Rocket 3.0 21:22:06 14° SSE 21:26:25 82° ENE 21:31:29 10° NNW
Cosmos 1892 3.6 21:26:26 19° SE 21:28:22 30° E 21:31:42 10° NNE
Meteor 1-21 Rocket 4.3 21:25:18 10° SSW 21:30:54 81° WNW 21:36:40 10° N
Cosmos 1302 Rocket 3.9 21:29:13 10° SSW 21:34:23 71° ESE 21:39:34 10° NNE
Cosmos 2228 3.8 21:31:15 10° NNW 21:35:20 47° W 21:39:23 10° SSW
Cosmos 192 4.3 21:32:44 10° SSW 21:37:38 87° ESE 21:42:35 10° NNE
Cosmos 2154 Rocket 4.3 21:32:25 10° NNW 21:38:36 68° W 21:44:32 11° S
Cosmos 1892 Rocket 3.5 21:38:01 16° S 21:41:31 71° E 21:45:53 10° NNE
Cosmos 968 Rocket 3.5 21:37:33 10° NNW 21:42:48 85° WSW 21:46:30 20° SSE
Cosmos 1697 Rocket 3.6 21:40:00 10° NW 21:45:14 41° WSW 21:49:50 13° S
Cosmos 1980 Rocket 2.3 21:40:24 10° NNW 21:46:06 78° WSW 21:50:07 20° SSE
SL-16 R/B 3.3 21:43:31 10° NNW 21:48:45 36° NE 21:52:57 15° ESE
Cosmos 1408 2.4 21:48:44 25° S 21:50:34 67° E 21:54:01 10° NNE
Cosmos 2058 Rocket 3.1 21:46:14 10° N 21:50:41 72° E 21:53:20 24° SSE
ATLAS 5 CENTAUR R/B 1.4 21:50:51 18° S 21:53:20 48° ESE 21:57:16 10° NE
SL-8 Rocket 4.1 21:47:39 10° N 21:53:52 66° ENE 21:58:01 22° SSE
Resurs 01 Rocket 4.3 21:52:05 10° WSW 21:54:09 13° W 21:56:15 10° WNW
Cosmos 2369 4.0 21:48:52 10° NNW 21:54:31 61° WSW 21:58:31 20° S
CZ-2C R/B 3.7 21:50:10 10° NNE 21:54:44 81° WNW 21:58:48 12° SSW
USA 267 3.9 21:49:49 10° ENE 21:55:28 30° SE 21:59:30 17° S
SJ 16-02 3.0 21:57:23 10° N 22:01:00 24° ENE 22:03:35 15° ESE
SL-4 R/B 4.0 22:04:44 11° E 22:04:44 11° E 22:04:53 10° E
In-Cosmos 22 Rocket 4.3 21:59:05 21° S 22:02:42 60° E 22:08:01 10° NNE
COSMOS 2406 3.9 21:58:02 10° SW 22:03:42 58° WNW 22:09:24 10° NNE
Cosmos 1833 Rocket 4.4 22:04:12 10° WSW 22:09:16 34° NW 22:14:22 10° NNE
Cosmos 1825 2.4 22:08:00 33° SSE 22:09:17 50° E 22:12:56 10° NNE
Cosmos 1867 4.0 22:06:59 10° NW 22:12:18 52° WSW 22:15:18 25° S
Cosmos 2366 rocket 4.0 22:07:54 10° N 22:14:17 78° E 22:18:15 25° SSE
Cosmos 1869 3.3 22:13:03 10° N 22:16:57 66° E 22:18:25 36° SSE
Cosmos 2218 Rocket 4.0 22:14:17 10° N 22:20:45 86° E 22:24:43 25° S
Cosmos 2322 Rocket 2.9 22:17:27 10° NNW 22:22:56 46° NE 22:26:28 21° ESE
GP-B 3.1 22:19:41 10° N 22:24:09 81° W 22:26:26 28° S
ARIANE 5 R/B 3.4 22:21:46 22° SSW 22:24:18 45° W 22:28:33 10° NNW
Meteor 1-27 4.1 22:18:47 10° N 22:24:23 90° E 22:27:27 28° S
Terra 3.0 22:22:57 16° SSW 22:26:08 35° W 22:30:31 10° NNW
USA 276 1.8 22:25:17 10° WNW 22:28:20 83° SSW 22:28:42 65° SE
SAR-Lupe-4 3.4 22:24:49 10° NNE 22:28:25 81° ESE 22:29:35 41° S
FALCON 9 DEB 3.1 22:27:05 10° WNW 22:30:17 53° SW 22:30:31 52° SSW
USA 234 4.0 22:24:16 10° E 22:30:35 52° NNE 22:36:54 10° NW
Cosmos 1959 Rocket 4.4 22:24:42 10° N 22:30:50 84° W 22:34:26 27° S
BREEZE-M DEB (TANK) 3.6 22:32:57 10° WNW 22:35:52 71° N 22:46:03 10° E
Cosmos 2278 4.1 22:30:50 10° NW 22:36:25 54° WSW 22:39:18 27° S
Cosmos 1633 2.5 22:39:00 51° SE 22:39:29 57° E 22:42:54 10° NNE
Cosmos 1992 Rocket 4.2 22:37:42 16° SSW 22:41:57 70° WNW 22:47:12 10° NNE
Okean 1-7 Rocket 3.8 22:40:57 27° SSW 22:43:17 67° W 22:47:49 10° N
Cosmos 2333 Rocket 3.7 22:38:36 10° NNW 22:43:39 30° NE 22:48:05 12° ESE
Cosmos 1758 Rocket 3.8 22:42:24 39° SSE 22:43:41 54° E 22:47:59 10° NNE
Cosmos 2082 Rocket 3.5 22:42:10 10° WSW 22:47:29 39° NW 22:52:49 10° NNE
Cosmos 1486 Rocket 4.4 22:42:39 10° NNW 22:47:45 54° WSW 22:50:04 30° SSW
ASTEX 1 4.0 22:43:08 10° N 22:48:01 53° WNW 22:51:09 21° SSW
Cosmos 1606 3.1 22:49:45 10° N 22:53:32 50° ENE 22:54:21 42° ESE
Cosmos-2242 2.9 22:49:41 10° N 22:53:56 73° E 22:55:10 45° SSE
Cosmos 1812 Rocket 3.5 22:50:13 10° N 22:54:42 87° W 22:56:09 43° S
Cosmos 2360 Rocket 2.7 22:51:52 10° NNW 22:57:27 54° ENE 23:00:32 26° SE
ADEOS Rocket 3.8 22:53:13 25° SE 22:57:44 63° ENE 23:05:25 10° N
Cosmos 1340 Rocket 3.9 22:58:42 28° ESE 22:59:03 28° E 23:02:29 10° NNE
Gbstr 26 Del rocket 3.1 22:59:00 46° SSE 22:59:28 49° SE 23:04:09 10° ENE
Cosmos 1602 Rocket 3.7 23:05:35 36° SSW 23:07:13 65° W 23:11:32 10° N
Cosmos 1821 Rocket 3.9 23:02:13 10° N 23:08:28 85° W 23:11:22 34° S
Cosmos 44 3.5 23:14:09 41° SE 23:14:33 42° ESE 23:18:48 10° NE
Cosmos 1354 Rocket 4.2 23:12:29 10° NNW 23:17:43 61° WSW 23:19:33 38° S
Cosmos 2237 4.2 23:14:32 10° NNW 23:20:16 73° WSW 23:22:29 38° S
ALOS 2 2.5 23:21:37 49° SSE 23:22:47 87° ENE 23:27:12 10° NNW
ERS-2 3.2 23:19:50 10° NE 23:22:57 30° E 23:22:57 30° E
Spot 4 4.0 23:21:49 40° SSW 23:23:21 61° WSW 23:28:07 10° NNW
CENTAUR R/B 3.9 23:22:31 18° ESE 23:23:26 19° ESE 23:27:48 10° ENE
NOSS 8 (A) 4.5 23:29:31 59° ENE 23:29:31 59° ENE 23:32:03 10° NE
Cosmos 1980 Rocket 4.4 23:27:01 10° WNW 23:29:06 12° W 23:31:11 10° WSW
COSMOS 2428 4.1 23:24:58 10° NNW 23:30:09 33° NE 23:34:37 13° ESE
Cosmos 2058 2.8 23:29:58 55° S 23:30:51 89° WNW 23:35:03 10° N
Nadezhda 3 Rocket 4.0 23:28:02 32° SSW 23:31:05 76° W 23:37:17 10° N
Cosmos 1777 Rocket 4.0 23:26:07 10° NNW 23:31:24 70° WSW 23:33:07 42° S
H-2A R/B 3.4 23:27:35 10° NNE 23:31:49 89° W 23:32:48 53° SSW
SL-16 R/B 2.9 23:27:37 10° NW 23:32:56 42° WSW 23:34:48 32° SSW
Cosmos 2219 Rocket 3.0 23:27:43 10° NNW 23:33:12 46° NE 23:36:40 21° ESE
Cosmos 1953 Rocket 3.6 23:33:03 51° SSE 23:34:00 67° E 23:38:24 10° NNE
ATLAS 5 CENTAUR R/B 3.6 23:34:53 10° W 23:38:07 24° NNW 23:41:43 10° NNE
USA 267 3.2 23:32:24 10° NE 23:38:59 88° NW 23:45:32 10° WSW
SJ 16-02 2.0 23:35:33 10° NW 23:39:43 41° WSW 23:40:31 37° SW
SL-4 R/B 1.7 23:40:05 41° W 23:41:10 75° NNW 23:44:52 10° ENE
Meteor 2-2 Rocket 4.4 23:35:40 10° NNW 23:41:42 80° W 23:44:11 38° S
Cosmos 1825 Rocket 3.7 23:41:10 44° SW 23:42:20 64° W 23:46:40 10° N
Cosmos 2322 4.4 23:36:51 10° NNW 23:42:23 50° ENE 23:45:44 23° ESE
Cosmos 2221 2.5 23:46:53 10° N 23:51:16 74° E 23:52:14 52° SSE
PSLV R/B 4.0 23:49:49 10° NNE 23:54:31 57° E 23:55:36 45° SSE
